Regional Weather Roundup
Issued by NWS Cleveland, OH

Home | Current Version | Previous Version | Graphics & Text | Print | Product List | Glossary On
Versions: 1 2 3 4 5 6 7 8 9 10 11 12 13 14 15 16 17 18 19 20 21 22 23 24 25 26 27 28 29 30 31 32 33 34 35 36 37 38 39 40 41 42 43 44 45 46 47 48 49 50
000
ASUS41 KCLE 231500
RWRCLE
OHIO REGIONAL WEATHER ROUNDUP
NATIONAL WEATHER SERVICE WILMINGTON, OH
1000 AM EST THU NOV 23 2017

NOTE: "FAIR" INDICATES FEW OR NO CLOUDS BELOW 12,000 FEET WITH NO
SIGNIFICANT WEATHER AND/OR OBSTRUCTIONS TO VISIBILITY.

OHZ001>008-015>018-024>027-034-035-043-044-231600-
   NORTHWEST OHIO

CITY           SKY/WX    TMP DP  RH WIND       PRES   REMARKS
DEFIANCE       CLOUDY    32  25  75 S8        30.11F WCI  25
FINDLAY        PTSUNNY   34  24  67 S10       30.11F WCI  26
TOLEDO EXPRESS CLOUDY    33  26  75 S7        30.11F WCI  27
TOLEDO EXEC    CLOUDY    34  25  69 SW12      30.12F WCI  25
LIMA           FAIR      33  26  75 SW8       30.11F WCI  26
$$

OHZ009>014-019>023-028>033-038-089-231600-
   NORTHEAST OHIO

CITY           SKY/WX    TMP DP  RH WIND       PRES   REMARKS
CLE-HOPKINS    PTSUNNY   33  23  66 SW8       30.16F WCI  26
CLE-LAKEFRONT  FAIR      33  21  61 SW10      30.14F WCI  25
CUY CO. ARPT   MOSUNNY   34  21  60 SW7       30.14F WCI  28
LORAIN-ELYRIA  PTSUNNY   32  20  61 SW9       30.14F WCI  24
ASHTABULA      CLOUDY    31  21  66 SW10      30.14F WCI  22
AKRON-CANTON   PTSUNNY   30  21  69 SW7       30.14S WCI  23
WOOSTER        NOT AVBL
MANSFIELD      FAIR      32  23  69 SW8       30.12F WCI  25
YOUNGSTOWN     CLOUDY    31  20  63 W8        30.14R WCI  23
$$

OHZ042-051>053-060>062-070>072-077>081-231600-
  SOUTHWEST OHIO

CITY           SKY/WX    TMP DP  RH WIND       PRES   REMARKS
CINC-COVINGTON CLOUDY    33  28  81 S7        30.14F WCI  27
CINC-LUNKEN    PTSUNNY   31  28  89 SW3       30.19F
HAMILTON       FAIR      33  30  88 CALM      30.17F
DAYTON         NOT AVBL
WRIGHT-PAT AFB CLOUDY    33  26  76 S5        30.14F WCI  28
DAYTON GENERAL FAIR      32  26  78 S6        30.14S WCI  26
WILMINGTON     FAIR      31  27  85 SW7       30.14F WCI  24
$$

OHZ036-037-039>041-045>050-054>059-063>069-073>076-082>088-231600-
  CENTRAL AND SOUTHEAST OHIO

CITY           SKY/WX    TMP DP  RH WIND       PRES   REMARKS
COLUMBUS       CLOUDY    30  23  75 S5        30.16S WCI  25
OSU AIRPORT    PTSUNNY   31  25  78 S6        30.15S WCI  25
BOLTON FIELD   CLOUDY    28  25  86 S3        30.16S
RICKENBACK AFB NOT AVBL
NEWARK         PTSUNNY   31  23  72 S5        30.16S WCI  26
MARION         FAIR      31  24  75 S10       30.14F WCI  22
LANCASTER      FAIR      30  26  85 CALM      30.16S
ZANESVILLE     FAIR      29  25  85 CALM      30.16S
NEW PHILLY     CLOUDY    31  23  72 E3        30.17S
$$




USA.gov is the U.S. government's official web portal to all federal, state and local government web resources and services.